COSMOS 2491 DEB, 57550

Orbit data source: Space-Track

COSMOS 2491 DEB, 57550 is space debris in LEO originally from a launch on Wed, 25 Dec 2013 UTC launched from the Plesetsk Missile And Space Complex (PKMTR). Debris objects in space refer to the collection of defunct objects orbiting the Earth. Examples of debris include non-operational satellites, rocket bodies, and fragments generated from explosions, collisions, or faulty payload assembly.

Loading next visibility...
Identifier
57550, 2013-076AM
Orbit
LEO
Country
Flag of CISCIS
Related business
Manufacturer
TsNIIKhM
Mission
Spacecraft
Bus & Motor
Unknown
Mass
Unknown
Launch date (UTC)
2013-12-25 (12 years ago)
Launch vehicle
Unknown
Launch site
Plesetsk Missile And Space Complex (PKMTR)
Object type
Payload
Rocket body
Debris
Shape & HBR
Unknown shape, 0.1 m
Radar Cross Section
Small (<0.1 m²)

Expand to show TLE details & history
Last TLE update: 3 weeks ago

TLE from 3 weeks ago
0 COSMOS 2491 DEB
1 57550U 13076AM  25320.47121365  .00003715  00000-0  16869-1 0  9997
2 57550  82.4509 238.6110 0154957 260.2982  98.0583 12.73887022116992
Epoch: 2025-11-16T11:18Z
TLE epoch observation values (Epoch: 2025-11-16T11:18:32.859Z)
Latitude
-0.00007°
Longitude
13.18855°
Altitude
1,387.532 km
Speed
7.157 km/s
True Right ascension
15h 54m 26s
True Declination
0° 00' 00"
Sunlit
Object was in daylight at epoch
Visualization orbit readout
Latitude
Unknown
Longitude
Unknown
Altitude
Unknown
Speed
Unknown
Apparent Right ascension
Unknown
Apparent Declination
Unknown
Sunlit
N/A
Visualization observer readout
Local Sidereal Time
23:31:27
Azimuth
Unknown
Elevation
Unknown
Doppler factor
Unknown
Orbital elements
Apogee altitude
1,483.416 km
Perigee altitude
1,243.493 km
Semi-major axis
7,741.592 km
Eccentricity
0.0155
Inclination
82.4509°
RAAN
238.611°
Arg. of periapsis
260.2982°
True anomaly
99.81141°
Mean anomaly
98.0583°
Eccentric anomaly
98.93536°
Mean motion
3.18638 °/min
Orbital period
112.98 mins
BSTAR
0.016869
Loading maneuver chart data...
Computing Atmospheric mass density...
Loading historical data...
Loading historical data...
Loading historical data...
Loading historical data...
Loading historical data...
Loading historical data...
Loading historical data...

Documentation

Showing up to 5 results
|